Time,TemperatureF,DewpointF,PressureIn,WindDirection,WindDirectionDegrees,WindSpeedMPH,WindSpeedGustMPH,Humidity,HourlyPrecipIn,Conditions,Clouds,dailyrainin,SoftwareType,DateUTC
2013-03-15 00:14:00,45.5,33.0,30.19,NW,304,5.0,-999.0,62,-99.99,,,0.00,weatherlink.com 1.10,2013-03-15 04:14:00,
2013-03-15 00:29:00,45.1,33.0,30.18,NW,315,3.0,-999.0,62,-99.99,,,0.00,weatherlink.com 1.10,2013-03-15 04:29:00,
2013-03-15 00:44:00,44.6,32.0,30.19,NW,309,4.0,-999.0,62,-99.99,,,0.00,weatherlink.com 1.10,2013-03-15 04:44:00,
2013-03-15 00:59:00,44.4,32.0,30.19,WNW,294,5.0,-999.0,63,-99.99,,,0.00,weatherlink.com 1.10,2013-03-15 04:59:00,
2013-03-15 01:14:00,44.1,32.0,30.19,WNW,297,4.0,-999.0,62,-99.99,,,0.00,weatherlink.com 1.10,2013-03-15 05:14:00,
2013-03-15 01:29:00,44.0,32.0,30.19,WNW,288,4.0,-999.0,62,-99.99,,,0.00,weatherlink.com 1.10,2013-03-15 05:29:00,
2013-03-15 01:44:00,44.0,31.0,30.19,WNW,296,4.0,-999.0,61,-99.99,,,0.00,weatherlink.com 1.10,2013-03-15 05:44:00,
2013-03-15 01:59:00,44.0,31.0,30.20,WNW,297,9.0,-999.0,60,-99.99,,,0.00,weatherlink.com 1.10,2013-03-15 05:59:00,
2013-03-15 02:14:00,43.7,31.0,30.20,NW,308,6.0,-999.0,61,-99.99,,,0.00,weatherlink.com 1.10,2013-03-15 06:14:00,
2013-03-15 02:29:00,43.1,31.0,30.20,NW,314,7.0,-999.0,62,-99.99,,,0.00,weatherlink.com 1.10,2013-03-15 06:29:00,
2013-03-15 02:44:00,42.8,30.0,30.20,NW,317,4.0,-999.0,60,-99.99,,,0.00,weatherlink.com 1.10,2013-03-15 06:44:00,
2013-03-15 02:59:00,42.5,30.0,30.20,WNW,299,6.0,-999.0,61,-99.99,,,0.00,weatherlink.com 1.10,2013-03-15 06:59:00,
2013-03-15 03:14:00,42.5,29.0,30.20,NW,306,5.0,-999.0,59,-99.99,,,0.00,weatherlink.com 1.10,2013-03-15 07:14:00,
2013-03-15 03:29:00,42.1,29.0,30.20,NW,315,8.0,-999.0,59,-99.99,,,0.00,weatherlink.com 1.10,2013-03-15 07:29:00,
2013-03-15 03:44:00,41.6,28.0,30.19,NW,321,5.0,-999.0,60,-99.99,,,0.00,weatherlink.com 1.10,2013-03-15 07:44:00,
2013-03-15 03:59:00,41.4,28.0,30.19,NW,323,4.0,-999.0,60,-99.99,,,0.00,weatherlink.com 1.10,2013-03-15 07:59:00,
2013-03-15 04:14:00,40.9,28.0,30.19,NW,307,3.0,-999.0,61,-99.99,,,0.00,weatherlink.com 1.10,2013-03-15 08:14:00,
2013-03-15 04:29:00,40.5,28.0,30.20,NNW,329,7.0,-999.0,62,-99.99,,,0.00,weatherlink.com 1.10,2013-03-15 08:29:00,
2013-03-15 04:44:00,40.3,28.0,30.19,North,355,6.0,-999.0,62,-99.99,,,0.00,weatherlink.com 1.10,2013-03-15 08:44:00,
2013-03-15 04:59:00,39.8,28.0,30.19,NNW,330,5.0,-999.0,62,-99.99,,,0.00,weatherlink.com 1.10,2013-03-15 08:59:00,
2013-03-15 05:14:00,39.5,28.0,30.19,NNW,345,4.0,-999.0,63,-99.99,,,0.00,weatherlink.com 1.10,2013-03-15 09:14:00,
2013-03-15 05:29:00,39.2,28.0,30.19,NW,316,6.0,-999.0,64,-99.99,,,0.00,weatherlink.com 1.10,2013-03-15 09:29:00,
2013-03-15 05:44:00,39.2,28.0,30.20,NW,323,8.0,-999.0,64,-99.99,,,0.00,weatherlink.com 1.10,2013-03-15 09:44:00,
2013-03-15 05:59:00,38.7,28.0,30.21,NW,306,3.0,-999.0,65,-99.99,,,0.00,weatherlink.com 1.10,2013-03-15 09:59:00,
2013-03-15 06:14:00,38.4,28.0,30.21,NNW,333,4.0,-999.0,66,-99.99,,,0.00,weatherlink.com 1.10,2013-03-15 10:14:00,
2013-03-15 06:29:00,38.4,28.0,30.21,NW,321,5.0,-999.0,66,-99.99,,,0.00,weatherlink.com 1.10,2013-03-15 10:29:00,
2013-03-15 06:44:00,38.1,28.0,30.22,NW,325,2.0,-999.0,66,-99.99,,,0.00,weatherlink.com 1.10,2013-03-15 10:44:00,
2013-03-15 06:59:00,38.1,27.0,30.22,NNW,340,4.0,-999.0,65,-99.99,,,0.00,weatherlink.com 1.10,2013-03-15 10:59:00,
2013-03-15 07:14:00,38.0,27.0,30.21,NW,321,4.0,-999.0,66,-99.99,,,0.00,weatherlink.com 1.10,2013-03-15 11:14:00,
2013-03-15 07:29:00,38.1,27.0,30.22,NW,317,4.0,-999.0,65,-99.99,,,0.00,weatherlink.com 1.10,2013-03-15 11:29:00,
2013-03-15 07:44:00,38.6,28.0,30.22,NW,321,4.0,-999.0,66,-99.99,,,0.00,weatherlink.com 1.10,2013-03-15 11:44:00,
2013-03-15 07:59:00,39.5,28.0,30.22,NW,304,3.0,-999.0,64,-99.99,,,0.00,weatherlink.com 1.10,2013-03-15 11:59:00,
2013-03-15 08:14:00,40.7,28.0,30.23,WNW,302,3.0,-999.0,62,-99.99,,,0.00,weatherlink.com 1.10,2013-03-15 12:14:00,
2013-03-15 08:29:00,41.9,29.0,30.23,NW,306,4.0,-999.0,60,-99.99,,,0.00,weatherlink.com 1.10,2013-03-15 12:29:00,
2013-03-15 08:44:00,42.9,29.0,30.23,WNW,296,2.0,-999.0,58,-99.99,,,0.00,weatherlink.com 1.10,2013-03-15 12:44:00,
2013-03-15 08:59:00,43.8,29.0,30.23,NW,315,3.0,-999.0,56,-99.99,,,0.00,weatherlink.com 1.10,2013-03-15 12:59:00,
2013-03-15 09:15:00,44.8,29.0,30.23,WNW,289,3.0,-999.0,54,-99.99,,,0.00,weatherlink.com 1.10,2013-03-15 13:15:00,
2013-03-15 09:30:00,45.5,28.0,30.24,NNW,340,5.0,-999.0,50,-99.99,,,0.00,weatherlink.com 1.10,2013-03-15 13:30:00,
2013-03-15 09:45:00,46.7,27.0,30.23,WNW,300,4.0,-999.0,46,-99.99,,,0.00,weatherlink.com 1.10,2013-03-15 13:45:00,
2013-03-15 10:00:00,47.3,26.0,30.24,NW,315,3.0,-999.0,44,-99.99,,,0.00,weatherlink.com 1.10,2013-03-15 14:00:00,
2013-03-15 10:15:00,47.5,25.0,30.24,West,276,4.0,-999.0,41,-99.99,,,0.00,weatherlink.com 1.10,2013-03-15 14:15:00,
2013-03-15 10:30:00,48.7,23.0,30.23,North,355,4.0,-999.0,37,-99.99,,,0.00,weatherlink.com 1.10,2013-03-15 14:30:00,
2013-03-15 10:45:00,49.8,24.0,30.23,WNW,288,4.0,-999.0,37,-99.99,,,0.00,weatherlink.com 1.10,2013-03-15 14:45:00,
2013-03-15 11:00:00,50.4,23.0,30.22,WNW,285,6.0,-999.0,34,-99.99,,,0.00,weatherlink.com 1.10,2013-03-15 15:00:00,
2013-03-15 11:15:00,50.9,22.0,30.22,West,280,8.0,-999.0,32,-99.99,,,0.00,weatherlink.com 1.10,2013-03-15 15:15:00,
2013-03-15 11:30:00,51.5,22.0,30.22,SW,234,7.0,-999.0,31,-99.99,,,0.00,weatherlink.com 1.10,2013-03-15 15:30:00,
2013-03-15 11:45:00,52.1,24.0,30.21,West,275,4.0,-999.0,33,-99.99,,,0.00,weatherlink.com 1.10,2013-03-15 15:45:00,
2013-03-15 12:00:00,52.3,27.0,30.21,SSW,194,1.0,-999.0,37,-99.99,,,0.00,weatherlink.com 1.10,2013-03-15 16:00:00,
2013-03-15 12:15:00,51.0,28.0,30.19,SSW,212,12.0,-999.0,42,-99.99,,,0.00,weatherlink.com 1.10,2013-03-15 16:15:00,
2013-03-15 12:30:00,50.3,30.0,30.19,SSW,205,13.0,-999.0,45,-99.99,,,0.00,weatherlink.com 1.10,2013-03-15 16:30:00,
2013-03-15 12:45:00,49.9,30.0,30.19,SSW,202,14.0,-999.0,46,-99.99,,,0.00,weatherlink.com 1.10,2013-03-15 16:45:00,
2013-03-15 13:00:00,49.9,30.0,30.18,SSW,202,13.0,-999.0,46,-99.99,,,0.00,weatherlink.com 1.10,2013-03-15 17:00:00,
2013-03-15 13:15:00,50.3,31.0,30.17,SW,215,14.0,-999.0,48,-99.99,,,0.00,weatherlink.com 1.10,2013-03-15 17:15:00,
2013-03-15 13:30:00,50.8,31.0,30.16,SW,217,16.0,-999.0,47,-99.99,,,0.00,weatherlink.com 1.10,2013-03-15 17:30:00,
2013-03-15 13:45:00,50.6,32.0,30.15,SSW,211,18.0,-999.0,49,-99.99,,,0.00,weatherlink.com 1.10,2013-03-15 17:45:00,
2013-03-15 14:00:00,50.6,33.0,30.14,SW,216,17.0,-999.0,51,-99.99,,,0.00,weatherlink.com 1.10,2013-03-15 18:00:00,
2013-03-15 14:15:00,50.7,33.0,30.13,SSW,205,16.0,-999.0,51,-99.99,,,0.00,weatherlink.com 1.10,2013-03-15 18:15:00,
2013-03-15 14:30:00,50.7,33.0,30.11,SSW,199,18.0,-999.0,51,-99.99,,,0.00,weatherlink.com 1.10,2013-03-15 18:30:00,
2013-03-15 14:45:00,51.4,34.0,30.11,SW,214,18.0,-999.0,51,-99.99,,,0.00,weatherlink.com 1.10,2013-03-15 18:45:00,
2013-03-15 15:00:00,51.9,36.0,30.10,South,191,18.0,-999.0,54,-99.99,,,0.00,weatherlink.com 1.10,2013-03-15 19:00:00,
2013-03-15 15:30:00,53.6,37.0,30.09,SW,221,20.0,-999.0,53,-99.99,,,0.00,weatherlink.com 1.10,2013-03-15 19:30:00,
2013-03-15 15:45:00,53.6,37.0,30.09,SW,224,19.0,-999.0,53,-99.99,,,0.00,weatherlink.com 1.10,2013-03-15 19:45:00,
2013-03-15 16:01:00,53.9,37.0,30.08,SW,225,22.0,-999.0,53,-99.99,,,0.00,weatherlink.com 1.10,2013-03-15 20:01:00,
2013-03-15 16:16:00,53.9,38.0,30.08,SSW,212,20.0,-999.0,56,-99.99,,,0.00,weatherlink.com 1.10,2013-03-15 20:16:00,
2013-03-15 16:31:00,53.2,38.0,30.08,SW,225,19.0,-999.0,57,-99.99,,,0.00,weatherlink.com 1.10,2013-03-15 20:31:00,
2013-03-15 16:46:00,53.4,40.0,30.07,SW,217,19.0,-999.0,60,-99.99,,,0.00,weatherlink.com 1.10,2013-03-15 20:46:00,
2013-03-15 17:01:00,53.4,40.0,30.06,SW,225,22.0,-999.0,62,-99.99,,,0.00,weatherlink.com 1.10,2013-03-15 21:01:00,
2013-03-15 17:16:00,53.4,40.0,30.05,SW,215,22.0,-999.0,62,-99.99,,,0.00,weatherlink.com 1.10,2013-03-15 21:16:00,
2013-03-15 17:31:00,53.6,41.0,30.05,SW,217,24.0,-999.0,63,-99.99,,,0.00,weatherlink.com 1.10,2013-03-15 21:31:00,
2013-03-15 18:16:00,53.5,42.0,30.05,SW,221,23.0,-999.0,66,-99.99,,,0.00,weatherlink.com 1.10,2013-03-15 22:16:00,
2013-03-15 19:16:00,53.0,44.0,30.04,SW,219,21.0,-999.0,72,-99.99,,,0.00,weatherlink.com 1.10,2013-03-15 23:16:00,
2013-03-15 19:46:00,53.3,44.0,30.03,SW,235,19.0,-999.0,72,-99.99,,,0.00,weatherlink.com 1.10,2013-03-15 23:46:00,
2013-03-15 20:01:00,53.3,44.0,30.03,SW,227,24.0,-999.0,72,-99.99,,,0.00,weatherlink.com 1.10,2013-03-16 00:01:00,
2013-03-15 20:16:00,53.3,45.0,30.03,SW,228,18.0,-999.0,73,-99.99,,,0.00,weatherlink.com 1.10,2013-03-16 00:16:00,
2013-03-15 20:31:00,53.3,45.0,30.03,SW,232,24.0,-999.0,73,-99.99,,,0.00,weatherlink.com 1.10,2013-03-16 00:31:00,
2013-03-15 20:46:00,53.3,45.0,30.03,WSW,238,23.0,-999.0,74,-99.99,,,0.00,weatherlink.com 1.10,2013-03-16 00:46:00,
2013-03-15 21:01:00,53.3,45.0,30.04,WSW,244,17.0,-999.0,74,-99.99,,,0.00,weatherlink.com 1.10,2013-03-16 01:01:00,
2013-03-15 21:16:00,53.4,45.0,30.03,SW,232,18.0,-999.0,73,-99.99,,,0.00,weatherlink.com 1.10,2013-03-16 01:16:00,
2013-03-15 21:31:00,53.5,45.0,30.04,SW,233,20.0,-999.0,74,-99.99,,,0.00,weatherlink.com 1.10,2013-03-16 01:31:00,
2013-03-15 21:46:00,53.5,45.0,30.03,SW,223,17.0,-999.0,74,-99.99,,,0.00,weatherlink.com 1.10,2013-03-16 01:46:00,
2013-03-15 22:01:00,53.5,46.0,30.03,WSW,246,22.0,-999.0,75,-99.99,,,0.00,weatherlink.com 1.10,2013-03-16 02:01:00,
2013-03-15 22:16:00,53.7,46.0,30.03,WSW,242,19.0,-999.0,76,-99.99,,,0.00,weatherlink.com 1.10,2013-03-16 02:16:00,
2013-03-15 22:31:00,53.8,47.0,30.03,SW,227,19.0,-999.0,77,-99.99,,,0.00,weatherlink.com 1.10,2013-03-16 02:31:00,
2013-03-15 23:01:00,54.2,47.0,30.03,WSW,241,18.0,-999.0,76,-99.99,,,0.00,weatherlink.com 1.10,2013-03-16 03:01:00,
2013-03-15 23:16:00,54.3,48.0,30.02,WSW,253,22.0,-999.0,78,-99.99,,,0.00,weatherlink.com 1.10,2013-03-16 03:16:00,
2013-03-15 23:31:00,54.3,48.0,30.02,WSW,243,16.0,-999.0,78,-99.99,,,0.00,weatherlink.com 1.10,2013-03-16 03:31:00,
2013-03-15 23:46:00,54.2,48.0,30.02,WSW,238,19.0,-999.0,79,-99.99,,,0.00,weatherlink.com 1.10,2013-03-16 03:46:00,